| time (UTC) | temp C | wind direction | speed KPH | gust KPH | rain 1hr cm | rain 24hr cm | rain mn cm | humidity % | barometer mb |
| 20260508063004 | 17 | 145 | 9.7 | 20.9 | 0.00 | 0.00 | 0.00 | 24 | 1012.5 |
| 20260508061505 | 17 | 155 | 6.4 | 25.7 | 0.00 | 0.00 | 0.00 | 25 | 1012.6 |
| 20260508060004 | 18 | 65 | 6.4 | 17.7 | 0.00 | 0.00 | 0.00 | 26 | 1012.8 |
| 20260508054505 | 18 | 198 | 9.7 | 19.3 | 0.00 | 0.00 | 0.00 | 26 | 1012.8 |
| 20260508053003 | 18 | 211 | 9.7 | 25.7 | 0.00 | 0.00 | 0.00 | 27 | 1012.8 |
| 20260508051509 | 18 | 155 | 4.8 | 19.3 | 0.00 | 0.00 | 0.00 | 30 | 1012.8 |
| 20260508050004 | 19 | 144 | 6.4 | 17.7 | 0.00 | 0.00 | 0.00 | 30 | 1012.8 |
| 20260508044504 | 19 | 132 | 4.8 | 16.1 | 0.00 | 0.00 | 0.00 | 31 | 1012.8 |
| 20260508043004 | 18 | 187 | 6.4 | 16.1 | 0.00 | 0.00 | 0.00 | 37 | 1012.8 |
| 20260508041505 | 19 | 129 | 0.0 | 6.4 | 0.00 | 0.00 | 0.00 | 38 | 1012.9 |
| 20260508040005 | 20 | 112 | 1.6 | 6.4 | 0.00 | 0.00 | 0.00 | 36 | 1013.0 |
| 20260508034516 | 20 | 123 | 0.0 | 6.4 | 0.00 | 0.00 | 0.00 | 36 | 1012.9 |
| 20260508033012 | 20 | 128 | 0.0 | 9.7 | 0.00 | 0.00 | 0.00 | 35 | 1012.8 |
| 20260508031503 | 21 | 157 | 1.6 | 6.4 | 0.00 | 0.00 | 0.00 | 34 | 1012.8 |
| 20260508024513 | 22 | 160 | 3.2 | 9.7 | 0.00 | 0.00 | 0.00 | 33 | 1012.8 |
| 20260508023012 | 22 | 182 | 1.6 | 8.0 | 0.00 | 0.00 | 0.00 | 30 | 1012.7 |
| 20260508021511 | 23 | 202 | 1.6 | 8.0 | 0.00 | 0.00 | 0.00 | 29 | 1012.7 |
| 20260508020013 | 23 | 225 | 3.2 | 8.0 | 0.00 | 0.00 | 0.00 | 27 | 1012.8 |
| 20260508013010 | 24 | 113 | 0.0 | 6.4 | 0.00 | 0.00 | 0.00 | 24 | 1012.8 |
| 20260508011512 | 24 | 157 | 0.0 | 4.8 | 0.00 | 0.00 | 0.00 | 22 | 1012.8 |
| 20260508010025 | 24 | 183 | 0.0 | 6.4 | 0.00 | 0.00 | 0.00 | 24 | 1013.0 |
| 20260508004529 | 25 | 95 | 1.6 | 6.4 | 0.00 | 0.00 | 0.00 | 23 | 1013.1 |
| 20260508003013 | 25 | 157 | 1.6 | 8.0 | 0.00 | 0.00 | 0.00 | 23 | 1013.1 |
| 20260508001511 | 25 | 148 | 1.6 | 8.0 | 0.00 | 0.00 | 0.00 | 22 | 1013.2 |
| 20260508000018 | 25 | 194 | 3.2 | 8.0 | 0.00 | 0.00 | 0.00 | 23 | 1013.1 |
| 20260507234523 | 26 | 133 | 3.2 | 8.0 | 0.00 | 0.00 | 0.00 | 22 | 1013.3 |
| 20260507233024 | 26 | 167 | 1.6 | 11.3 | 0.00 | 0.00 | 0.00 | 23 | 1013.4 |
| 20260507231514 | 26 | 200 | 3.2 | 8.0 | 0.00 | 0.00 | 0.00 | 23 | 1013.6 |
| 20260507230017 | 26 | 315 | 0.0 | 9.7 | 0.00 | 0.00 | 0.00 | 25 | 1013.7 |
| 20260507224521 | 26 | 142 | 1.6 | 8.0 | 0.00 | 0.00 | 0.00 | 24 | 1013.9 |
| 20260507223017 | 26 | 205 | 4.8 | 9.7 | 0.00 | 0.00 | 0.00 | 24 | 1014.1 |
| 20260507221523 | 26 | 268 | 0.0 | 9.7 | 0.00 | 0.00 | 0.00 | 27 | 1014.3 |
| 20260507220005 | 25 | 291 | 0.0 | 6.4 | 0.00 | 0.00 | 0.00 | 26 | 1014.5 |
| 20260507213003 | 25 | 130 | 1.6 | 11.3 | 0.00 | 0.00 | 0.00 | 27 | 1014.8 |
| 20260507211503 | 25 | 321 | 0.0 | 11.3 | 0.00 | 0.00 | 0.00 | 30 | 1015.0 |
| 20260507210003 | 24 | 186 | 6.4 | 14.5 | 0.00 | 0.00 | 0.00 | 29 | 1015.1 |
| 20260507204503 | 23 | 205 | 6.4 | 12.9 | 0.00 | 0.00 | 0.00 | 28 | 1015.3 |
| 20260507203006 | 23 | 138 | 3.2 | 16.1 | 0.00 | 0.00 | 0.00 | 31 | 1015.4 |
| 20260507200007 | 23 | 212 | 8.0 | 20.9 | 0.00 | 0.00 | 0.00 | 31 | 1015.6 |
| 20260507194503 | 22 | 219 | 6.4 | 19.3 | 0.00 | 0.00 | 0.00 | 33 | 1015.8 |
| 20260507193005 | 22 | 189 | 4.8 | 17.7 | 0.00 | 0.00 | 0.00 | 37 | 1015.8 |
| 20260507191507 | 22 | 163 | 6.4 | 16.1 | 0.00 | 0.00 | 0.00 | 35 | 1015.9 |
| 20260507184511 | 21 | 204 | 3.2 | 14.5 | 0.00 | 0.00 | 0.00 | 37 | 1016.0 |
| 20260507183008 | 21 | 323 | 0.0 | 12.9 | 0.00 | 0.00 | 0.00 | 41 | 1016.1 |
| 20260507181510 | 21 | 234 | 0.0 | 12.9 | 0.00 | 0.00 | 0.00 | 42 | 1016.1 |
| 20260507180004 | 21 | 177 | 3.2 | 12.9 | 0.00 | 0.00 | 0.00 | 43 | 1016.2 |
| 20260507173021 | 20 | 152 | 4.8 | 11.3 | 0.00 | 0.00 | 0.00 | 45 | 1016.3 |
| 20260507171505 | 20 | 133 | 3.2 | 16.1 | 0.00 | 0.00 | 0.00 | 46 | 1016.3 |
| 20260507170010 | 19 | 292 | 0.0 | 11.3 | 0.00 | 0.00 | 0.00 | 49 | 1016.5 |
| 20260507163007 | 18 | 173 | 4.8 | 17.7 | 0.00 | 0.00 | 0.00 | 54 | 1016.4 |
| 20260507161525 | 17 | 189 | 9.7 | 17.7 | 0.00 | 0.00 | 0.00 | 53 | 1016.4 |
| 20260507160013 | 17 | 144 | 6.4 | 12.9 | 0.00 | 0.00 | 0.00 | 57 | 1016.3 |
| 20260507153018 | 15 | 198 | 6.4 | 19.3 | 0.00 | 0.00 | 0.00 | 64 | 1016.3 |
| 20260507151521 | 15 | 140 | 8.0 | 19.3 | 0.00 | 0.00 | 0.00 | 66 | 1016.2 |
| 20260507150019 | 14 | 195 | 8.0 | 17.7 | 0.00 | 0.00 | 0.00 | 68 | 1016.1 |
| 20260507144526 | 13 | 216 | 8.0 | 14.5 | 0.00 | 0.00 | 0.00 | 69 | 1016.1 |
| 20260507141522 | 12 | 177 | 6.4 | 19.3 | 0.00 | 0.00 | 0.00 | 73 | 1015.9 |
| 20260507140032 | 12 | 142 | 3.2 | 16.1 | 0.00 | 0.00 | 0.00 | 74 | 1015.9 |
| 20260507134514 | 12 | 175 | 8.0 | 17.7 | 0.00 | 0.00 | 0.00 | 76 | 1015.6 |
| 20260507133011 | 12 | 173 | 8.0 | 16.1 | 0.00 | 0.00 | 0.00 | 77 | 1015.4 |
| 20260507131530 | 12 | 115 | 6.4 | 17.7 | 0.00 | 0.00 | 0.00 | 77 | 1015.3 |
| 20260507124509 | 12 | 155 | 6.4 | 16.1 | 0.00 | 0.00 | 0.00 | 78 | 1015.2 |
| 20260507121516 | 12 | 142 | 8.0 | 20.9 | 0.00 | 0.00 | 0.00 | 75 | 1014.8 |
| 20260507113007 | 13 | 155 | 8.0 | 17.7 | 0.00 | 0.00 | 0.00 | 71 | 1014.9 |
| 20260507110003 | 13 | 198 | 11.3 | 19.3 | 0.00 | 0.00 | 0.00 | 69 | 1014.8 |
| 20260507104523 | 13 | 168 | 4.8 | 12.9 | 0.00 | 0.00 | 0.00 | 70 | 1015.0 |
| 20260507103009 | 13 | 196 | 8.0 | 17.7 | 0.00 | 0.00 | 0.00 | 71 | 1014.9 |
| 20260507101511 | 13 | 74 | 6.4 | 16.1 | 0.00 | 0.00 | 0.00 | 72 | 1014.8 |
| 20260507100029 | 13 | 144 | 6.4 | 20.9 | 0.00 | 0.00 | 0.00 | 71 | 1014.7 |
| 20260507094520 | 13 | 217 | 8.0 | 22.5 | 0.00 | 0.00 | 0.00 | 70 | 1014.5 |
| 20260507093008 | 13 | 174 | 8.0 | 19.3 | 0.00 | 0.00 | 0.00 | 70 | 1014.6 |
| 20260507091508 | 13 | 166 | 6.4 | 12.9 | 0.00 | 0.00 | 0.00 | 70 | 1014.5 |
| 20260507090016 | 13 | 121 | 8.0 | 20.9 | 0.00 | 0.00 | 0.00 | 69 | 1014.6 |
| 20260507084543 | 13 | 202 | 3.2 | 12.9 | 0.00 | 0.00 | 0.00 | 69 | 1014.7 |
| 20260507083023 | 13 | 177 | 0.0 | 4.8 | 0.00 | 0.00 | 0.00 | 69 | 1014.9 |
| 20260507081511 | 13 | 210 | 3.2 | 17.7 | 0.00 | 0.00 | 0.00 | 68 | 1014.7 |
| 20260507074514 | 14 | 306 | 0.0 | 12.9 | 0.00 | 0.00 | 0.00 | 66 | 1014.6 |
| 20260507073026 | 15 | 201 | 9.7 | 24.1 | 0.00 | 0.00 | 0.00 | 66 | 1014.1 |
| 20260507071527 | 15 | 163 | 12.9 | 22.5 | 0.00 | 0.00 | 0.00 | 65 | 1013.8 |
| 20260507070012 | 15 | 167 | 11.3 | 27.4 | 0.00 | 0.00 | 0.00 | 64 | 1013.6 |
| 20260507064508 | 15 | 182 | 11.3 | 22.5 | 0.00 | 0.00 | 0.00 | 63 | 1013.5 |